Preview of NWS' New Version of Forecast
This preview is not operational and should not be used for support decisions.

Regional Weather Roundup (RWR)

Issued by National Weather Service (NWS)

                            
000
ASUS44 KMEG 211200
RWRTN 
TENNESSEE HOURLY STATE WEATHER ROUNDUP
NATIONAL WEATHER SERVICE MEMPHIS TN
700 AM CDT SAT SEP 21 2019

TNZ002-004-019-021-049-052-054-088>092-211300-
WEST TENNESSEE
  
CITY           SKY/WX    TMP DP  RH WIND       PRES   REMARKS
MEMPHIS INTL   FAIR      71  59  65 S7        30.19S                  
NWS MEMPHIS      N/A     68 N/A N/A MISG        N/A                   
JACKSON        FAIR      63  60  90 CALM      30.23R                  
DYERSBURG      FAIR      67  64  90 SE6       30.22R                  
$$

TNZ008-025-027-028-033-062-065-066-211300-
NORTH MIDDLE TENNESSEE
  
CITY           SKY/WX    TMP DP  RH WIND       PRES   REMARKS
NASHVILLE      FAIR      66  57  72 S5        30.27S                  
CLARKSVILLE    FAIR      64  60  87 SE3       30.25R                  
SMYRNA         FAIR      61  58  90 SE3       30.29R                  
CROSSVILLE     FAIR      61  54  77 CALM      30.35S                  
$$

TNZ061-075-076-078-094-096-097-211300-
SOUTH MIDDLE TENNESSEE
  
CITY           SKY/WX    TMP DP  RH WIND       PRES   REMARKS
$$

TNZ017-018-042-046-047-211300-
NORTHEAST TENNESSEE
  
CITY           SKY/WX    TMP DP  RH WIND       PRES   REMARKS
TRI CITIES     MOCLDY    60  58  92 CALM      30.36R                  
$$

TNZ012-013-036-069-073-074-211300-
CENTRAL EAST TENNESSEE
  
CITY           SKY/WX    TMP DP  RH WIND       PRES   REMARKS
KNOXVILLE      FAIR      64  60  87 CALM      30.32R                  
OAK RIDGE      FAIR      65  60  84 CALM      30.34R                  
$$

TNZ083-085-099-211300-
SOUTHEAST TENNESSEE
  
CITY           SKY/WX    TMP DP  RH WIND       PRES   REMARKS
CHATTANOOGA    FAIR      60  58  92 CALM      30.33R                  
$$

SKY/WX REPORTED AS FAIR MEANS FEW OR NO CLOUDS BELOW
12 THOUSAND FEET.